FREGAT DEB, 45814

Orbit data source: Space-Track

FREGAT DEB, 45814 is space debris in LEO originally from a launch on Mon, 18 Jul 2011 UTC launched from the Tyuratam Missile And Space Complex (TTMTR). Debris objects in space refer to the collection of defunct objects orbiting the Earth. Examples of debris include non-operational satellites, rocket bodies, and fragments generated from explosions, collisions, or faulty payload assembly.

Loading next visibility...
Identifier
45814, 2011-037AY
Orbit
LEO
Country
Flag of CISCIS
Related business
Manufacturer
Lavochkin
Mission
Spacecraft
Bus & Motor
Unknown
Mass
Unknown
Launch date (UTC)
2011-07-18 (14 years ago)
Launch vehicle
Unknown
Launch site
Tyuratam Missile And Space Complex (TTMTR)
Object type
Payload
Rocket body
Debris
Shape & HBR
Unknown shape, 0.1 m
Radar Cross Section
Small (<0.1 m²)

Expand to show TLE details & history
Last TLE update: 20 hours ago

TLE from 20 hours ago
0 FREGAT DEB
1 45814U 11037AY  25349.09838986  .00015239  00000-0  95024-1 0  9999
2 45814  51.1187 319.1146 1004105 344.7135  12.5289 11.54497009230462
Epoch: 2025-12-15T02:21Z
TLE epoch observation values (Epoch: 2025-12-15T02:21:40.883Z)
Latitude
-0.00011°
Longitude
-160.30766°
Altitude
1,085.885 km
Speed
7.658 km/s
True Right ascension
21h 16m 27s
True Declination
0° 00' 00"
Sunlit
Object was in daylight at epoch
Visualization orbit readout
Latitude
Unknown
Longitude
Unknown
Altitude
Unknown
Speed
Unknown
Apparent Right ascension
Unknown
Apparent Declination
Unknown
Sunlit
N/A
Visualization observer readout
Local Sidereal Time
21:16:42
Azimuth
Unknown
Elevation
Unknown
Doppler factor
Unknown
Orbital elements
Apogee altitude
2,722.13 km
Perigee altitude
1,061.364 km
Semi-major axis
8,269.884 km
Eccentricity
0.10041
Inclination
51.1187°
RAAN
319.1146°
Arg. of periapsis
344.7135°
True anomaly
15.37003°
Mean anomaly
12.5289°
Eccentric anomaly
13.91214°
Mean motion
2.88598 °/min
Orbital period
124.74 mins
BSTAR
0.095024
Loading maneuver chart data...
Computing Atmospheric mass density...
Loading historical data...
Loading historical data...
Loading historical data...
Loading historical data...
Loading historical data...
Loading historical data...
Loading historical data...

Documentation

Showing up to 5 results
|